Location: Alando
(42.3054°N, 9.2895°E)
Time: 11:48:28
(UTC+00:00)

MOS 1 Rocket - Pass Details

Date: 09 April 2020
Orbit: 614 x 831 km, 97.4° (Epoch: 05 June)

Event Time Altitude Azimuth Distance (km) Brightness Sun altitude
Rises 19:16:20 0° 16° (NNE) 3,358 6.9 -14.5°
Reaches altitude 10° 19:18:45 10° 21° (NNE) 2,434 6.2 -14.9°
Maximum altitude 19:24:05 55° 99° (E) 989 3.7 -15.8°
Drops below altitude 10° 19:29:23 10° 177° (S) 2,418 5.8 -16.7°
Sets 19:31:46 0° 181° (S) 3,333 6.5 -17.1°
